Flag for Germany Weather past 2 weeks in Niederkassel, North Rhine-Westphalia, Germany

Now
37 °F

Rain. Low clouds.


Feels Like: 31 °F
Forecast: 38 / 43 °F
Wind: 8 mph from Southwest

Location: Bonn-Hangelar

Current Time: Jan 26, 2015 at 11:31:44 AM

Latest Report: Jan 26, 2015 at 11:00 AM


Visibility: 3 mi

Pressure: 30.17 "Hg

Humidity: 99%

Dew point: 37 °F

Location of NiederkasselLocation

Historic Weather in Niederkassel — Graph

°F

Niederkassel temperature yesterday

Maximum temperature yesterday: 35 °F (at 6:00 PM)
Minimum temperature yesterday: 31 °F (at 3:00 AM)
Average temperature yesterday: 34 °F

Past Weeks' High & Low Weather Summary

 TemperatureHumidityPressure
High51 °F (Jan 13, 1:00 PM)100% (Jan 19, 11:00 PM)30.46 "Hg (Jan 19, 11:00 PM)
Low26 °F (Jan 21, 7:00 AM)65% (Jan 20, 3:00 PM)29.44 "Hg (Jan 15, 2:00 PM)
Average36 °F87%29.98 "Hg
* Reported Jan 11 10:00 AM — Jan 26 10:00 AM, Niederkassel, Weather by CustomWeather, © 2014

Note: Actual official high and low records may vary slightly from our data, if they occured in-between our weather recording intervals... More about our weather records

Advertising

Niederkassel weather history for previous 24 hours

 ConditionsComfort  
Time TempWeatherWind HumidityBarometerVisibility
10:00 AM
Jan 26
36 °FRain. Low clouds.8 mph98%30.19 "Hg3 mi
9:00 AM36 °FRain. Passing clouds.5 mph99%30.20 "Hg14 mi
8:00 AM35 °FRain. Low clouds.8 mph99%30.22 "Hg2 mi
7:00 AM35 °FLow clouds.8 mph99%30.23 "Hg4 mi
6:00 AM35 °FFog.6 mph99%30.24 "Hg4 mi
5:00 AM35 °FLow clouds.7 mph98%30.26 "Hg6 mi
4:00 AM35 °FDrizzle. Low clouds.7 mph98%30.29 "Hg2 mi
3:00 AM35 °FLight freezing rain. Low clouds.7 mph99%30.32 "Hg1 mi
2:00 AM34 °FDrizzle. Low clouds.6 mph98%30.34 "Hg1 mi
1:00 AM34 °FDrizzle. Low clouds.6 mph98%30.34 "Hg1 mi
12:00 AM34 °FLight rain. Low clouds.6 mph97%30.37 "Hg2 mi
11:00 PM
Jan 25
34 °FDrizzle. Low clouds.7 mph98%30.38 "Hg2 mi
10:00 PM34 °FLight freezing rain. Low clouds.6 mph98%30.40 "Hg2 mi
9:00 PM35 °FLight rain. Low clouds.5 mph98%30.41 "Hg3 mi
8:00 PM35 °FRain. Low clouds.5 mph96%30.42 "Hg4 mi
7:00 PM35 °FLight rain. Low clouds.3 mph97%30.42 "Hg4 mi
6:00 PM35 °FLight rain. Low clouds.5 mph100%30.42 "Hg2 mi
5:00 PM35 °FLight rain. Low clouds.3 mph100%30.41 "Hg1 mi
4:00 PM35 °FLow clouds.5 mph100%30.42 "Hg1 mi
3:00 PM35 °FLight rain. Low clouds.5 mph98%30.42 "Hg2 mi
2:00 PM35 °FLight rain. Low clouds.5 mph97%30.42 "Hg4 mi
1:00 PM35 °FLight rain. Low clouds.5 mph97%30.44 "Hg4 mi
12:00 PM35 °FFog.5 mph96%30.45 "Hg4 mi
11:00 AM34 °FFog.6 mph97%30.46 "Hg3 mi
Weather by CustomWeather, © 2014

See weather overviewHow to use our weather pages